LRFT Weather Reports


time (UTC)temp
F
wind
direction
speed
knots
gust
knots
rain 1hr
in
rain 24hr
in
rain mn
in
humidity
%
barometer
mb
20260510104900 63 330 12.2 0.0 0.00 0.00 0.00 83 1015.0
20260510103400 63 330 12.2 0.0 0.00 0.00 0.00 83 1015.0
20260510101859 63 330 12.2 0.0 0.00 0.00 0.00 83 1015.0
20260510100407 63 330 12.2 0.0 0.00 0.00 0.00 83 1015.0
20260510094901 63 320 9.6 0.0 0.00 0.00 0.00 83 1015.0
20260510093400 63 320 9.6 0.0 0.00 0.00 0.00 83 1015.0
20260510091906 63 320 9.6 0.0 0.00 0.00 0.00 83 1015.0
20260510090400 63 320 9.6 0.0 0.00 0.00 0.00 83 1015.0
20260510084856 61 340 7.8 0.0 0.00 0.00 0.00 88 1015.0
20260510083359 61 340 7.8 0.0 0.00 0.00 0.00 88 1015.0
20260510081859 61 340 7.8 0.0 0.00 0.00 0.00 88 1015.0
20260510080359 61 340 7.8 0.0 0.00 0.00 0.00 88 1015.0
20260510074859 61 340 6.1 0.0 0.00 0.00 0.00 88 1015.0
20260510073409 61 340 6.1 0.0 0.00 0.00 0.00 88 1015.0
20260510071855 61 340 6.1 0.0 0.00 0.00 0.00 88 1015.0
20260510070401 61 340 6.1 0.0 0.00 0.00 0.00 88 1015.0
20260510064855 59 310 6.1 0.0 0.00 0.00 0.00 94 1015.0
20260510063359 59 310 6.1 0.0 0.00 0.00 0.00 94 1015.0
20260510061856 59 310 6.1 0.0 0.00 0.00 0.00 94 1015.0
20260510060359 59 310 6.1 0.0 0.00 0.00 0.00 94 1015.0
20260510054856 55 1.7 0.0 0.00 0.00 0.00 100 1015.0
20260510053407 55 1.7 0.0 0.00 0.00 0.00 100 1015.0
20260510051859 55 1.7 0.0 0.00 0.00 0.00 100 1015.0
20260510050359 55 1.7 0.0 0.00 0.00 0.00 100 1015.0
20260510044857 55 1.7 0.0 0.00 0.00 0.00 100 1014.0
20260510043359 55 1.7 0.0 0.00 0.00 0.00 100 1014.0
20260510041859 55 1.7 0.0 0.00 0.00 0.00 100 1014.0
20260510040359 55 1.7 0.0 0.00 0.00 0.00 100 1014.0
20260510034853 55 1.7 0.0 0.00 0.00 0.00 100 1014.0
20260510033405 55 1.7 0.0 0.00 0.00 0.00 100 1014.0
20260510031857 55 1.7 0.0 0.00 0.00 0.00 100 1014.0
20260510030400 55 1.7 0.0 0.00 0.00 0.00 100 1014.0
20260510024854 55 100 2.6 0.0 0.00 0.00 0.00 100 1014.0
20260510023401 55 100 2.6 0.0 0.00 0.00 0.00 100 1014.0
20260510021853 55 100 2.6 0.0 0.00 0.00 0.00 100 1014.0
20260510020359 55 100 2.6 0.0 0.00 0.00 0.00 100 1014.0
20260510014857 55 100 2.6 0.0 0.00 0.00 0.00 100 1014.0
20260510013359 0 0.0 0.0 0.00 0.00 0.00
20260510011856 0 0.0 0.0 0.00 0.00 0.00
20260510010400 0 0.0 0.0 0.00 0.00 0.00
20260510004856 55 100 2.6 0.0 0.00 0.00 0.00 100 1014.0
20260510003400 55 100 2.6 0.0 0.00 0.00 0.00 100 1014.0
20260510001857 55 100 2.6 0.0 0.00 0.00 0.00 100 1014.0
20260510000359 55 100 2.6 0.0 0.00 0.00 0.00 100 1014.0
20260509234857 0 0.0 0.0 0.00 0.00 0.00
20260509233414 0 0.0 0.0 0.00 0.00 0.00
20260509231856 0 0.0 0.0 0.00 0.00 0.00
20260509230359 0 0.0 0.0 0.00 0.00 0.00
20260509224854 57 120 6.1 0.0 0.00 0.00 0.00 94 1015.0
20260509223359 57 120 6.1 0.0 0.00 0.00 0.00 94 1015.0
20260509221850 57 120 6.1 0.0 0.00 0.00 0.00 94 1015.0
20260509220356 0 0.0 0.0 0.00 0.00 0.00
20260509214854 57 120 6.1 0.0 0.00 0.00 0.00 94 1015.0
20260509213359 57 120 6.1 0.0 0.00 0.00 0.00 94 1015.0
20260509211854 0 0.0 0.0 0.00 0.00 0.00
20260509210359 0 0.0 0.0 0.00 0.00 0.00
20260509204906 57 120 6.1 0.0 0.00 0.00 0.00 94 1015.0
20260509203400 57 120 6.1 0.0 0.00 0.00 0.00 94 1015.0
20260509201857 57 120 6.1 0.0 0.00 0.00 0.00 94 1015.0
20260509200359 0 0.0 0.0 0.00 0.00 0.00
20260509194857 57 110 6.1 0.0 0.00 0.00 0.00 94 1015.0
20260509193359 57 110 6.1 0.0 0.00 0.00 0.00 94 1015.0
20260509191856 57 110 6.1 0.0 0.00 0.00 0.00 94 1015.0
20260509190359 57 110 6.1 0.0 0.00 0.00 0.00 94 1015.0
20260509184900 59 110 7.8 0.0 0.00 0.00 0.00 88 1014.0
20260509183400 59 110 7.8 0.0 0.00 0.00 0.00 88 1014.0
20260509181900 59 110 7.8 0.0 0.00 0.00 0.00 88 1014.0
20260509180400 59 110 7.8 0.0 0.00 0.00 0.00 88 1014.0
20260509174900 61 110 9.6 0.0 0.00 0.00 0.00 83 1014.0
20260509173401 61 110 9.6 0.0 0.00 0.00 0.00 83 1014.0
20260509171857 61 110 9.6 0.0 0.00 0.00 0.00 83 1014.0
20260509170400 61 110 9.6 0.0 0.00 0.00 0.00 83 1014.0
20260509164853 63 110 12.2 0.0 0.00 0.00 0.00 73 1014.0
20260509163400 63 110 12.2 0.0 0.00 0.00 0.00 73 1014.0
20260509161856 63 110 12.2 0.0 0.00 0.00 0.00 73 1014.0
20260509160359 63 110 12.2 0.0 0.00 0.00 0.00 73 1014.0
20260509154900 64 110 12.2 0.0 0.00 0.00 0.00 73 1014.0
20260509153359 64 110 12.2 0.0 0.00 0.00 0.00 73 1014.0
20260509151900 64 110 12.2 0.0 0.00 0.00 0.00 73 1014.0
20260509150400 64 110 12.2 0.0 0.00 0.00 0.00 73 1014.0
20260509144900 64 120 12.2 0.0 0.00 0.00 0.00 73 1014.0
20260509143359 64 120 12.2 0.0 0.00 0.00 0.00 73 1014.0
20260509141856 64 120 12.2 0.0 0.00 0.00 0.00 73 1014.0
20260509140400 64 120 12.2 0.0 0.00 0.00 0.00 73 1014.0
20260509134900 63 120 12.2 0.0 0.00 0.00 0.00 77 1014.0
20260509133400 63 120 12.2 0.0 0.00 0.00 0.00 77 1014.0
20260509131857 63 120 12.2 0.0 0.00 0.00 0.00 77 1014.0
20260509130359 0 0.0 0.0 0.00 0.00 0.00
20260509124900 64 120 12.2 0.0 0.00 0.00 0.00 78 1014.0
20260509123400 64 120 12.2 0.0 0.00 0.00 0.00 78 1014.0
20260509121850 64 120 12.2 0.0 0.00 0.00 0.00 78 1014.0
20260509120359 64 120 12.2 0.0 0.00 0.00 0.00 78 1014.0
20260509114856 64 120 9.6 0.0 0.00 0.00 0.00 78 1014.0
20260509113359 64 120 9.6 0.0 0.00 0.00 0.00 78 1014.0
20260509111900 64 120 9.6 0.0 0.00 0.00 0.00 78 1014.0
20260509110359 0 0.0 0.0 0.00 0.00 0.00